DW6451 Weather Reports


Display with metric or nautical units.
time (UTC)temp
F
wind
direction
speed
MPH
gust
MPH
rain 1hr
in
rain 24hr
in
rain mn
in
humidity
%
barometer
mb
20260902023044 71 329 0.0 0.0 0.00 0.00 0.00 65 1010.9
20260902021547 71 329 0.0 0.0 0.00 0.00 0.00 63 1010.8
20260902020045 72 329 0.0 0.0 0.00 0.00 0.00 62 1010.6
20260902014552 73 329 0.0 0.0 0.00 0.00 0.00 60 1010.5
20260902013051 74 329 0.0 0.0 0.00 0.00 0.00 58 1010.4
20260902011541 75 329 0.0 0.0 0.00 0.00 0.00 56 1010.2
20260902010050 77 329 0.0 0.0 0.00 0.00 0.00 54 1010.2
20260902004540 77 329 0.0 1.0 0.00 0.00 0.00 53 1009.8
20260902003113 78 329 0.0 1.0 0.00 0.00 0.00 51 1010.0
20260902001539 79 329 0.0 0.0 0.00 0.00 0.00 49 1009.9
20260902000039 80 329 0.0 1.0 0.00 0.00 0.00 49 1009.8
20260901234539 81 329 0.0 1.0 0.00 0.00 0.00 48 1009.7
20260901233038 81 329 0.0 1.0 0.00 0.00 0.00 47 1009.5
20260901231543 82 329 0.0 1.0 0.00 0.00 0.00 44 1009.4
20260901230036 83 337 0.0 4.0 0.00 0.00 0.00 43 1009.4
20260901224536 83 350 0.0 4.0 0.00 0.00 0.00 42 1009.3
20260901223035 84 256 1.0 6.0 0.00 0.00 0.00 41 1009.3
20260901221540 85 194 1.0 6.0 0.00 0.00 0.00 40 1009.4
20260901220040 86 279 1.0 7.0 0.00 0.00 0.00 40 1009.4
20260901214538 86 290 1.0 9.0 0.00 0.00 0.00 38 1009.3
20260901213036 87 348 3.0 7.0 0.00 0.00 0.00 38 1009.3
20260901211533 87 263 1.0 7.0 0.00 0.00 0.00 39 1009.2
20260901210034 87 340 2.0 8.0 0.00 0.00 0.00 38 1009.1
20260901204533 87 252 1.0 8.0 0.00 0.00 0.00 37 1009.0
20260901203036 89 297 2.0 7.0 0.00 0.00 0.00 35 1009.0
20260901201530 89 330 2.0 7.0 0.00 0.00 0.00 34 1009.0
20260901200030 89 295 4.0 9.0 0.00 0.00 0.00 35 1009.1
20260901194527 89 109 2.0 7.0 0.00 0.00 0.00 34 1009.3
20260901193025 89 184 3.0 8.0 0.00 0.00 0.00 37 1009.3
20260901191533 89 327 2.0 6.0 0.00 0.00 0.00 37 1009.5
20260901190022 89 338 1.0 8.0 0.00 0.00 0.00 38 1009.6
20260901184521 89 348 1.0 8.0 0.00 0.00 0.00 40 1009.8
20260901183015 88 310 1.0 8.0 0.00 0.00 0.00 40 1010.0
20260901181514 87 332 2.0 9.0 0.00 0.00 0.00 40 1010.2
20260901180012 87 24 0.0 6.0 0.00 0.00 0.00 43 1010.4
20260901174510 86 342 2.0 6.0 0.00 0.00 0.00 43 1010.8
20260901173007 86 192 1.0 5.0 0.00 0.00 0.00 44 1010.9
20260901171507 85 314 2.0 7.0 0.00 0.00 0.00 46 1011.0
20260901170003 84 47 0.0 3.0 0.00 0.00 0.00 47 1011.1
20260901164615 84 220 0.0 5.0 0.00 0.00 0.00 52 1011.4
20260901163114 82 221 0.0 3.0 0.00 0.00 0.00 53 1011.4
20260901161552 81 311 0.0 5.0 0.00 0.00 0.00 56 1011.5
20260901160051 81 327 0.0 4.0 0.00 0.00 0.00 57 1011.7
20260901154554 80 322 1.0 6.0 0.00 0.00 0.00 59 1011.9
20260901153045 79 342 0.0 5.0 0.00 0.00 0.00 60 1011.9
20260901151542 78 198 0.0 6.0 0.00 0.00 0.00 64 1011.9
20260901150040 76 171 0.0 3.0 0.00 0.00 0.00 65 1011.9
20260901144534 75 304 0.0 3.0 0.00 0.00 0.00 69 1012.0
20260901143030 74 296 1.0 4.0 0.00 0.00 0.00 72 1011.9
20260901141526 72 209 0.0 6.0 0.00 0.00 0.00 74 1011.8
20260901140022 70 244 0.0 2.0 0.00 0.00 0.00 78 1011.8
20260901134518 69 244 0.0 3.0 0.00 0.00 0.00 80 1011.7
20260901133013 67 335 0.0 2.0 0.00 0.00 0.00 84 1011.7
20260901131510 65 336 0.0 2.0 0.00 0.00 0.00 87 1011.7
20260901130007 64 337 0.0 2.0 0.00 0.00 0.00 91 1011.8
20260901124505 63 337 0.0 2.0 0.00 0.02 0.00 94 1011.5
20260901123002 62 337 0.0 0.0 0.00 0.02 0.00 96 1011.4
20260901121505 61 337 0.0 0.0 0.00 0.02 0.00 97 1011.3
20260901120014 61 337 0.0 0.0 0.00 0.02 0.00 97 1011.1
20260901114513 61 337 0.0 0.0 0.00 0.16 0.00 97 1010.9
20260901113033 61 337 0.0 0.0 0.00 0.16 0.00 97 1010.8
20260901111527 61 337 0.0 0.0 0.00 0.16 0.00 96 1010.6
20260901110026 61 337 0.0 0.0 0.00 0.16 0.00 96 1010.4
20260901104535 61 337 0.0 0.0 0.00 0.16 0.00 95 1010.4
20260901103030 61 337 0.0 0.0 0.00 0.16 0.00 95 1010.4
20260901101521 62 337 0.0 0.0 0.00 0.16 0.00 96 1010.5
20260901100020 62 337 0.0 0.0 0.00 0.16 0.00 96 1010.6
20260901094523 62 337 0.0 0.0 0.00 0.16 0.00 96 1010.6
20260901093019 62 337 0.0 0.0 0.00 0.16 0.00 96 1010.5
20260901091518 62 337 0.0 0.0 0.00 0.16 0.00 95 1010.4
20260901090031 62 337 0.0 0.0 0.00 0.16 0.00 94 1010.4
20260901084517 63 337 0.0 0.0 0.00 0.16 0.00 95 1010.4
20260901083016 63 337 0.0 0.0 0.00 0.16 0.00 95 1010.4
20260901081517 63 337 0.0 1.0 0.00 0.16 0.00 96 1010.4
20260901080017 63 337 0.0 0.0 0.00 0.16 0.00 96 1010.5
20260901074515 63 337 0.0 0.0 0.00 0.16 0.00 95 1010.5
20260901073024 63 337 0.0 0.0 0.00 0.16 0.00 95 1010.4
20260901071515 63 337 0.0 0.0 0.00 0.16 0.00 95 1010.3
20260901070012 63 337 0.0 0.0 0.00 0.16 0.00 95 1010.4
20260901064511 63 337 0.0 0.0 0.00 0.16 0.00 95 1010.4
20260901063010 63 337 0.0 0.0 0.00 0.16 0.00 95 1010.5
20260901061509 63 337 0.0 0.0 0.00 0.16 0.00 94 1010.4
20260901060007 64 337 0.0 0.0 0.00 0.16 0.00 94 1010.3
20260901054507 64 337 0.0 0.0 0.00 0.16 0.00 94 1010.2
20260901053005 64 337 0.0 0.0 0.00 0.16 0.00 94 1010.4
20260901051503 65 337 0.0 0.0 0.00 0.16 0.00 93 1010.6
20260901050100 65 337 0.0 0.0 0.00 0.16 0.00 93 1010.4
20260901044559 65 337 0.0 0.0 0.00 0.16 0.16 93 1010.4
20260901043055 66 337 0.0 0.0 0.00 0.16 0.16 93 1010.2
20260901041554 66 337 0.0 0.0 0.00 0.16 0.16 93 1010.2
20260901040052 67 337 0.0 0.0 0.00 0.16 0.16 92 1010.0
20260901034553 68 337 0.0 0.0 0.00 0.16 0.16 92 1010.1
20260901033051 68 337 0.0 0.0 0.00 0.16 0.16 92 1010.2
20260901031552 69 337 0.0 0.0 0.00 0.16 0.16 91 1010.1
20260901030050 69 337 0.0 0.0 0.00 0.16 0.16 90 1009.9
20260901024550 70 337 0.0 0.0 0.00 0.16 0.16 88 1009.8